Weather History for KCLI - February, 2013

Change the Weather History Date:

Monday, February 11, 2013

  Actual Average Record
Temperature  
Mean Temperature 32 °F -  
Max Temperature 37 °F 26 °F - (-1)
Min Temperature 28 °F 7 °F - (-1)
Degree Days  
Heating Degree Days 32    
Moisture  
Dew Point 29 °F    
Average Humidity 86    
Maximum Humidity 100    
Minimum Humidity 69    
Precipitation  
Precipitation 0.00 in - - ()
Sea Level Pressure  
Sea Level Pressure 29.54 in    
Wind  
Wind Speed 12 mph (West)    
Max Wind Speed 24 mph    
Max Gust Speed 33 mph    
Visibility 9 miles    
Events Rain , Snow    
Averages and records for this station are not official NWS values.
T = Trace of Precipitation, MM = Missing Value Source: NWS Daily Summary

Daily Weather History Graph

Daily Weather History Graph

Search for Another Location

Airport or City:

Trip Planner

Search our weather history database for the weather conditions in past years. The results will help you decide how hot, cold, wet, or windy it might be!

Date:

Astronomy

Feb. 11, 2013 Rise Set
Actual Time 7:00 AM CST 5:18 PM CST
Civil Twilight 6:30 AM CST 5:48 PM CST
Nautical Twilight 5:56 AM CST 6:22 PM CST
Astronomical Twilight 5:22 AM CST 6:56 PM CST
Moon 7:19 AM CST (2/11) 7:22 PM CST (2/11)
Length of Visible Light 11h 18m
Length of Day
10h 17m
Waxing Crescent, 3% of the Moon is Illuminated
Feb 11
Waxing Crescent
Feb 17
First Quarter
Feb 25
Full
Mar 4
Last Quarter
Mar 11
New

Hourly Weather History & Observations

Time (CST) Temp. Windchill Dew Point Humidity Pressure Visibility Wind Dir Wind Speed Gust Speed Precip Events Conditions
12:15 AM 37.4 °F 34.9 °F 35.6 °F 93% 29.30 in 3.0 mi West 3.5 mph - N/A   Light Drizzle
12:35 AM 37.4 °F 28.9 °F 37.4 °F 100% 29.30 in 10.0 mi SW 13.8 mph 18.4 mph N/A Rain Rain
12:55 AM 37.4 °F 30.3 °F 35.6 °F 93% 29.30 in 10.0 mi SSW 10.4 mph - N/A   Light Drizzle
1:15 AM 37.4 °F 29.8 °F 33.8 °F 87% 29.29 in 10.0 mi SSW 11.5 mph - N/A   Overcast
1:35 AM 35.6 °F 28.0 °F 33.8 °F 93% 29.29 in 10.0 mi SSW 10.4 mph - N/A   Overcast
1:55 AM 35.6 °F 27.1 °F 33.8 °F 93% 29.29 in 10.0 mi SSW 12.7 mph - N/A   Overcast
2:15 AM 35.6 °F 28.6 °F 33.8 °F 93% 29.29 in 7.0 mi SSW 9.2 mph - N/A   Drizzle
2:35 AM 35.6 °F 27.5 °F 33.8 °F 93% 29.29 in 7.0 mi SSW 11.5 mph - N/A   Drizzle
2:55 AM 33.8 °F 26.4 °F 33.8 °F 100% 29.29 in 7.0 mi SSW 9.2 mph - N/A   Drizzle
3:15 AM 33.8 °F 25.8 °F 33.8 °F 100% 29.28 in 7.0 mi SSW 10.4 mph 17.3 mph N/A   Drizzle
3:35 AM 33.8 °F 27.0 °F 33.8 °F 100% 29.28 in 7.0 mi SSW 8.1 mph - N/A   Drizzle
3:55 AM 33.8 °F 25.8 °F 32.0 °F 93% 29.28 in 10.0 mi SSW 10.4 mph - N/A   Drizzle
4:15 AM 33.8 °F 25.3 °F 32.0 °F 93% 29.29 in 10.0 mi SW 11.5 mph 16.1 mph N/A   Light Drizzle
4:35 AM 33.8 °F 23.9 °F 32.0 °F 93% 29.29 in 10.0 mi SW 15.0 mph 18.4 mph N/A   Overcast
4:55 AM 33.8 °F 25.3 °F 32.0 °F 93% 29.29 in 7.0 mi SW 11.5 mph - N/A Rain Light Rain
5:15 AM 32.0 °F 23.6 °F 32.0 °F 100% 29.30 in 4.0 mi SW 10.4 mph - N/A Snow Light Snow
5:35 AM 32.0 °F 23.6 °F 32.0 °F 100% 29.30 in 4.0 mi SW 10.4 mph - N/A Snow Light Snow
5:55 AM 32.0 °F 23.0 °F 32.0 °F 100% 29.30 in 4.0 mi SSW 11.5 mph - N/A Snow Light Snow
6:15 AM 32.0 °F 23.6 °F 32.0 °F 100% 29.31 in 4.0 mi SW 10.4 mph - N/A Snow Light Snow
6:35 AM 32.0 °F 24.2 °F 32.0 °F 100% 29.31 in 4.0 mi SW 9.2 mph - N/A Snow Light Snow
6:55 AM 32.0 °F 24.2 °F 32.0 °F 100% 29.32 in 2.5 mi SW 9.2 mph - N/A Snow Light Snow
7:15 AM 32.0 °F 24.2 °F 32.0 °F 100% 29.32 in 4.0 mi SW 9.2 mph - N/A Snow Light Snow
7:35 AM 33.8 °F 27.0 °F 32.0 °F 93% 29.33 in 5.0 mi SW 8.1 mph - N/A Snow Light Snow
7:55 AM 33.8 °F 27.0 °F 32.0 °F 93% 29.34 in 5.0 mi WSW 8.1 mph - N/A Snow Light Snow
8:15 AM 33.8 °F 25.8 °F 32.0 °F 93% 29.35 in 4.0 mi WSW 10.4 mph - N/A Rain Light Rain
8:35 AM 33.8 °F 25.8 °F 32.0 °F 93% 29.36 in 7.0 mi West 10.4 mph 16.1 mph N/A Rain Rain
8:55 AM 33.8 °F 24.3 °F 32.0 °F 93% 29.37 in 10.0 mi West 13.8 mph 20.7 mph N/A   Light Drizzle
9:15 AM 33.8 °F 23.5 °F 32.0 °F 93% 29.39 in 10.0 mi West 16.1 mph - N/A   Overcast
9:35 AM 35.6 °F 26.2 °F 32.0 °F 87% 29.40 in 10.0 mi WNW 15.0 mph 24.2 mph N/A   Overcast
9:55 AM 35.6 °F 25.5 °F 32.0 °F 87% 29.42 in 10.0 mi West 17.3 mph 23.0 mph N/A   Overcast
10:15 AM 35.6 °F 25.5 °F 32.0 °F 87% 29.44 in 10.0 mi West 17.3 mph 28.8 mph N/A   Overcast
10:35 AM 33.8 °F 22.5 °F 32.0 °F 93% 29.45 in 7.0 mi WNW 19.6 mph 27.6 mph N/A Snow Light Snow
10:55 AM 35.6 °F 25.9 °F 32.0 °F 87% 29.47 in 10.0 mi WNW 16.1 mph 26.5 mph N/A   Overcast
11:15 AM 35.6 °F 24.8 °F 30.2 °F 81% 29.49 in 10.0 mi WNW 19.6 mph 33.4 mph N/A   Overcast
11:35 AM 35.6 °F 23.7 °F 30.2 °F 81% 29.50 in 10.0 mi West 24.2 mph 29.9 mph N/A   Overcast
11:55 AM 33.8 °F 22.2 °F 30.2 °F 87% 29.51 in 10.0 mi WNW 20.7 mph 29.9 mph N/A   Overcast
12:15 PM 33.8 °F 24.3 °F 30.2 °F 87% 29.52 in 10.0 mi West 13.8 mph 21.9 mph N/A   Overcast
12:35 PM 33.8 °F 23.2 °F 30.2 °F 87% 29.53 in 10.0 mi WNW 17.3 mph 24.2 mph N/A   Overcast
12:55 PM 33.8 °F 22.8 °F 30.2 °F 87% 29.55 in 10.0 mi WNW 18.4 mph 25.3 mph N/A   Overcast
1:15 PM 33.8 °F 22.8 °F 30.2 °F 87% 29.56 in 10.0 mi WNW 18.4 mph 31.1 mph N/A   Overcast
1:35 PM 33.8 °F 22.2 °F 30.2 °F 87% 29.57 in 10.0 mi West 20.7 mph 26.5 mph N/A   Overcast
1:55 PM 33.8 °F 22.8 °F 28.4 °F 81% 29.59 in 10.0 mi West 18.4 mph 26.5 mph N/A   Overcast
2:15 PM 32.0 °F 20.1 °F 30.2 °F 93% 29.60 in 10.0 mi West 19.6 mph 26.5 mph N/A   Overcast
2:35 PM 32.0 °F 20.1 °F 28.4 °F 87% 29.61 in 10.0 mi West 19.6 mph 28.8 mph N/A   Overcast
2:55 PM 32.0 °F 20.5 °F 28.4 °F 87% 29.64 in 10.0 mi West 18.4 mph 28.8 mph N/A   Overcast
3:15 PM 32.0 °F 19.5 °F 26.6 °F 80% 29.65 in 10.0 mi West 21.9 mph 32.2 mph N/A   Overcast
3:35 PM 32.0 °F 20.8 °F 26.6 °F 80% 29.67 in 10.0 mi West 17.3 mph 28.8 mph N/A   Overcast
3:55 PM 32.0 °F 20.8 °F 26.6 °F 80% 29.69 in 10.0 mi West 17.3 mph 25.3 mph N/A   Overcast
4:55 PM 30.2 °F 18.5 °F 24.8 °F 80% 29.72 in 10.0 mi WNW 17.3 mph 25.3 mph N/A   Overcast
5:15 PM 30.2 °F 18.5 °F 24.8 °F 80% 29.74 in 10.0 mi West 17.3 mph 26.5 mph N/A   Overcast
5:35 PM 30.2 °F 19.3 °F 24.8 °F 80% 29.76 in 10.0 mi WNW 15.0 mph 23.0 mph N/A   Overcast
5:55 PM 30.2 °F 18.9 °F 23.0 °F 75% 29.77 in 10.0 mi WNW 16.1 mph 23.0 mph N/A   Overcast
6:15 PM 30.2 °F 18.5 °F 23.0 °F 75% 29.78 in 10.0 mi WNW 17.3 mph 25.3 mph N/A   Overcast
6:35 PM 30.2 °F 17.4 °F 23.0 °F 75% 29.80 in 10.0 mi WNW 20.7 mph 27.6 mph N/A   Overcast
6:55 PM 28.4 °F 17.0 °F 23.0 °F 80% 29.81 in 10.0 mi WNW 15.0 mph - N/A   Overcast
7:15 PM 28.4 °F 16.6 °F 21.2 °F 74% 29.82 in 10.0 mi WNW 16.1 mph 26.5 mph N/A   Overcast
7:35 PM 28.4 °F 15.8 °F 21.2 °F 74% 29.83 in 10.0 mi WNW 18.4 mph 23.0 mph N/A   Overcast
7:55 PM 28.4 °F 18.5 °F 21.2 °F 74% 29.84 in 10.0 mi WNW 11.5 mph 26.5 mph N/A   Overcast
8:15 PM 28.4 °F 18.0 °F 21.2 °F 74% 29.84 in 10.0 mi WNW 12.7 mph 20.7 mph N/A Snow Light Snow
8:35 PM 28.4 °F 17.0 °F 21.2 °F 74% 29.85 in 10.0 mi WNW 15.0 mph 20.7 mph N/A Snow Light Snow
8:55 PM 28.4 °F 18.0 °F 21.2 °F 74% 29.86 in 10.0 mi WNW 12.7 mph 25.3 mph N/A   Overcast
9:15 PM 28.4 °F 16.2 °F 21.2 °F 74% 29.87 in 10.0 mi WNW 17.3 mph - N/A   Overcast
9:35 PM 28.4 °F 18.5 °F 21.2 °F 74% 29.87 in 10.0 mi WNW 11.5 mph 23.0 mph N/A   Overcast
9:55 PM 28.4 °F 16.6 °F 21.2 °F 74% 29.88 in 10.0 mi WNW 16.1 mph 24.2 mph N/A   Overcast
10:15 PM 28.4 °F 15.8 °F 19.4 °F 69% 29.88 in 10.0 mi NW 18.4 mph 24.2 mph N/A   Overcast
10:35 PM 28.4 °F 16.6 °F 19.4 °F 69% 29.89 in 10.0 mi WNW 16.1 mph 20.7 mph N/A   Overcast
10:55 PM 28.4 °F 19.1 °F 19.4 °F 69% 29.89 in 10.0 mi WNW 10.4 mph - N/A   Overcast
11:15 PM 28.4 °F 18.0 °F 19.4 °F 69% 29.90 in 10.0 mi WNW 12.7 mph - N/A   Overcast
11:35 PM 28.4 °F 18.0 °F 21.2 °F 74% 29.90 in 10.0 mi WNW 12.7 mph 21.9 mph N/A   Overcast
11:55 PM 28.4 °F 20.4 °F 21.2 °F 74% 29.91 in 10.0 mi West 8.1 mph - N/A   Overcast